Temp_Advection
nan nan nan nan nan nan nan nan nan nan nan nan nan nan nan nan nan nan nan nan nan nan nan nan nan nan nan nan nan nan nan nan nan nan nan nan nan nan nan nan nan nan nan nan nan nan nan nan nan nan nan nan nan nan
nan 0 -0 -0 -0 -0 -0 -0 -0 -0 -0 -0 -0 -0 -0 -0 -0 -0 -0 0 0 -0 -0 -0 -0 0 0 1 1 0 -0 -0 0 0 -0 -0 -0 0 0 -0 -0 0 -0 0 -0 -0 -0 -0 0 -0 -1 -1 -1 nan
nan 0 -0 -0 -0 -0 -0 -0 -0 -0 -0 0 0 -0 -0 -0 -0 0 -0 -0 0 -0 -1 -0 -0 0 0 0 0 0 0 -0 0 1 0 0 0 0 0 -0 -0 -0 -0 0 -0 -0 -0 -1 -2 -1 -1 -2 -1 nan
nan 0 0 -0 -0 -0 -0 -0 -0 -0 -0 0 0 0 0 -0 -0 -0 -0 0 0 0 -0 -0 -1 -0 0 -0 0 0 0 0 0 0 1 0 -0 0 0 -0 0 -0 -0 -0 -0 -1 -2 -1 -1 -1 -1 -2 -1 nan
nan 0 0 0 0 -0 -0 -0 -0 -0 -0 0 0 0 1 0 -0 -0 -0 -0 0 0 -0 -2 -1 -0 -0 -0 -0 -0 0 0 0 1 0 -0 -0 0 -0 0 -0 -0 -0 -0 -0 -1 -0 -1 -1 -1 -1 -1 -1 nan
nan 0 0 0 0 -0 -0 -0 -0 -0 -0 -0 0 0 0 1 1 -0 -0 0 -0 -0 1 -0 -2 -0 -0 -0 -0 -0 -0 -0 0 0 -0 -0 0 0 0 -0 -1 -0 -0 -0 -0 -1 -0 -1 -1 -1 -0 -0 -0 nan
nan 0 0 0 0 0 -0 -0 -0 -0 -0 -0 0 0 0 0 1 0 -0 0 -0 -0 -0 0 -1 -0 -0 -0 -0 -0 -0 -0 -0 0 0 0 -0 0 -0 -0 -1 -0 -1 -0 -0 -1 -1 -0 -0 -1 -1 -0 0 nan
nan 0 0 -0 -0 -0 -0 -0 -0 -0 -0 -0 -0 0 0 0 -0 -0 -0 -0 0 -0 0 -0 -1 -1 -0 -0 -0 -0 -0 -0 -0 0 -0 -0 -0 -1 -0 -0 -0 -0 -1 -0 -1 -0 -0 -1 -0 -0 -0 -1 -1 nan
nan 0 -0 -0 -0 -0 -0 -0 -0 -0 -0 -0 -0 -0 -0 -0 -0 0 0 -0 -0 0 0 0 -0 -0 -1 -0 -0 -0 0 -0 -0 -0 0 -0 -0 -0 0 -0 -0 -0 -0 -1 -1 -0 -0 -1 -0 -1 -1 -1 -2 nan
nan -0 -0 -0 -0 -0 -0 -0 -0 -0 -0 -0 -0 -0 -0 -0 0 0 0 -0 -0 -0 0 -0 0 -0 -1 -1 -0 -0 -0 -0 -0 -0 -0 -0 -0 -0 -1 -0 -0 -0 -0 0 -0 -0 -0 -0 -1 -1 -1 -1 -1 nan
nan 0 0 -0 -0 -0 -0 -0 -0 -0 -0 -1 -0 -0 -0 -0 0 -0 -1 -0 -0 -0 -0 -0 -0 0 -0 0 -0 -0 0 -0 -0 -0 -0 -0 -0 -1 -0 -1 -0 -0 0 0 0 0 0 -0 -1 -1 -1 -0 -0 nan
nan -0 -0 -0 -0 -0 -0 -0 -0 -0 -0 -0 0 -0 -0 -0 -0 -1 -0 -1 -0 -0 -0 -0 -1 -0 -0 0 0 -0 0 0 -0 -0 -0 -0 -0 -0 -0 -0 -0 -0 0 0 0 0 0 0 -0 -0 -0 0 0 nan
nan -0 -0 -0 -0 -0 -0 -0 -0 -0 0 0 -0 -0 -0 -0 -2 -0 0 -0 0 -0 -0 -0 -0 -1 -0 -0 0 -0 0 -0 -0 -0 0 -0 -1 -0 -0 -0 -1 -0 -0 -0 -0 -0 -0 -0 -0 0 0 1 1 nan
nan -0 -0 -0 -0 -0 -0 -0 -0 -0 -0 0 -0 -0 -0 -0 -0 -0 -0 -0 -0 0 -0 -0 -0 -0 -0 -0 -0 0 -0 -0 -0 0 -0 -0 -0 -0 -0 -0 -1 -1 -1 -1 -1 -1 -0 -0 -0 0 0 1 0 nan
nan -0 -0 -0 -0 -0 0 0 0 -0 0 -0 0 0 -0 0 -0 0 0 0 -0 0 0 -0 -0 -0 0 -0 -0 -0 -0 -0 0 -0 -0 -0 0 -0 -0 -0 -0 -0 -0 -0 -0 -0 -0 -0 -0 -0 0 0 0 nan
nan -0 -0 -0 -0 -0 0 0 0 0 0 0 0 0 -0 -0 0 0 0 0 0 -0 -0 0 0 -0 -0 -0 -0 0 -0 0 -0 -0 -0 -0 -0 -0 -0 -0 0 0 0 -0 -0 0 0 -0 -0 0 0 -0 -1 nan
nan -0 -0 -0 -0 -0 0 0 0 -0 -0 -0 0 0 0 -0 -0 -0 0 0 0 0 -0 -0 0 -0 0 -0 0 0 -0 -0 -0 -0 -0 -0 -0 -0 -0 -0 0 0 0 0 0 0 0 0 0 -0 -0 -0 -0 nan
nan -0 -0 -0 -0 -0 0 -0 0 0 0 0 -0 -0 0 0 0 0 0 0 0 -0 0 0 0 -0 0 -0 -0 -0 -0 -0 -0 -0 -0 -0 -0 -0 -0 0 0 0 0 0 -0 -0 0 -0 -1 -1 -0 0 -0 nan
nan -0 -0 -0 -0 -0 0 0 0 0 0 0 0 0 -0 -0 -0 0 0 0 0 0 -0 0 -0 -0 -0 -0 -0 -0 -0 -0 -0 -0 -0 0 0 0 -0 -0 -0 -0 0 0 -0 -0 0 -0 0 0 -0 -0 -1 nan
nan -0 -0 -0 -0 -0 0 0 0 0 0 0 0 -0 -0 -0 0 0 0 0 0 0 0 0 -0 -0 0 0 0 0 0 0 -0 -0 -0 -0 0 0 0 -0 -0 -0 0 0 -0 0 1 -0 -0 -0 0 0 -0 nan
nan -0 -0 -0 -0 0 0 0 0 0 0 0 0 -0 -0 0 0 0 0 0 0 0 0 -0 -0 0 0 -0 0 0 0 0 0 -0 -0 -0 0 0 0 0 0 -0 -0 -0 -0 0 -1 -1 -0 0 0 -0 -0 nan
nan -0 -0 -0 0 0 0 0 0 0 0 0 0 0 0 -0 0 0 0 0 -0 -0 -0 0 0 -0 -0 0 0 0 0 0 0 0 0 0 0 -0 -0 -0 -0 -0 -0 -0 -0 -0 0 0 0 0 0 0 0 nan
nan -0 0 0 0 0 0 0 0 0 0 -0 -0 -0 0 0 0 -0 0 -0 -0 -0 -0 0 0 -0 -0 0 0 0 0 0 0 0 0 -0 -0 -0 -0 -0 -0 -0 -0 -0 0 0 0 0 0 0 0 0 0 nan
nan 0 0 0 0 0 0 0 0 -0 -0 0 -0 -0 -0 -0 -0 0 0 -0 0 0 0 0 0 0 0 -0 -0 0 0 0 0 0 0 0 0 -0 -0 -0 -0 -0 -0 0 0 0 0 -0 -0 0 0 0 -0 nan
nan 0 0 0 0 0 -0 -0 -0 -0 0 0 -0 -0 -0 0 -0 -0 -1 -0 0 0 -0 0 0 0 0 -0 -0 -0 -0 0 0 0 0 0 -0 -0 0 0 0 0 0 0 0 -0 -0 0 0 0 0 -0 -0 nan
nan 0 0 0 0 -0 0 0 0 -0 0 0 -1 -0 -0 -0 -0 -1 -1 -0 0 0 0 0 0 0 0 0 -0 -0 -0 0 0 0 0 -0 0 0 0 0 0 -0 0 -0 -0 0 0 0 0 0 -0 -0 0 nan
nan -0 0 0 0 -0 0 -0 -0 0 0 -0 -0 0 -0 0 -1 -1 -0 0 0 0 0 0 0 0 0 -0 -0 -0 0 0 -0 0 0 -0 -0 -0 -0 -0 -0 -0 0 -0 0 0 0 0 0 0 0 0 0 nan
nan 0 0 0 0 0 0 0 0 -0 -1 -0 -0 0 -1 -1 -1 -0 0 0 0 0 0 0 0 0 0 -0 -0 -0 -0 0 -0 -0 0 0 -0 -0 -0 -0 -0 -0 -0 -0 0 0 0 0 0 0 0 0 0 nan
nan 0 0 0 0 0 -0 -0 -0 -0 -0 0 0 -0 -1 -0 -0 0 0 0 -0 0 0 0 0 0 -0 -0 -0 -0 -0 -0 0 -0 0 0 0 0 0 0 0 0 0 0 0 0 0 0 0 -0 -0 -0 -0 nan
nan 0 0 0 0 -0 -0 0 0 0 0 0 0 -0 -0 -1 -0 0 0 0 0 0 0 0 0 0 -0 -0 -0 -0 -0 -0 -0 -0 -0 0 0 0 0 0 0 0 0 0 0 0 0 0 -0 -0 -0 -0 -0 nan
nan 0 0 0 -0 -0 0 0 0 0 0 0 0 0 -0 -1 -1 -0 0 1 0 0 0 0 0 0 0 -0 -0 -0 -0 -0 0 -0 -0 0 0 0 -0 -0 -0 -0 -0 -0 0 0 0 -0 -0 -0 -0 -0 -0 nan
nan 0 0 -0 -0 0 -0 0 0 0 0 -0 0 0 -0 -0 -0 0 -0 0 0 0 0 0 -0 -0 -0 -0 -0 -0 -0 -0 -0 -0 -0 -0 0 0 -0 -0 -0 -0 -0 -0 -0 -0 -0 -0 -0 -0 -0 -0 -0 nan
nan nan nan nan nan nan nan nan nan nan nan nan nan nan nan nan nan nan nan nan nan nan nan nan nan nan nan nan nan nan nan nan nan nan nan nan nan nan nan nan nan nan nan nan nan nan nan nan nan nan nan nan nan nan
Wind_Speed
5 3 2 4 5 6 8 10 12 13 14 15 16 15 15 16 16 15 16 12 13 9 20 5 11 19 24 12 3 10 8 4 3 1 2 3 1 2 3 5 4 4 3 4 4 6 10 7 11 2 12 36 29 25
4 3 3 4 4 5 8 10 11 13 15 17 15 14 14 17 16 15 18 15 15 15 23 23 18 16 14 19 21 9 8 9 4 0 1 3 5 3 3 6 4 4 4 4 4 6 18 28 20 21 25 26 23 28
4 2 2 3 3 7 9 10 11 14 16 15 14 15 15 15 15 15 19 19 20 12 20 4 19 12 17 20 16 18 16 8 6 14 6 3 4 1 2 4 5 4 10 2 10 4 16 24 34 22 34 33 33 35
3 2 2 3 5 8 10 13 14 14 14 15 16 15 15 15 16 16 19 19 15 9 5 7 22 29 7 11 14 14 21 21 19 19 7 3 3 5 3 5 8 5 6 10 8 13 33 18 34 35 41 41 41 40
3 2 3 4 6 9 13 13 13 14 15 16 16 16 17 17 17 19 19 9 6 6 5 13 29 1 15 8 11 8 10 13 15 8 2 3 8 6 5 2 3 9 5 5 9 25 23 31 36 41 45 45 43 41
3 3 4 5 9 11 12 13 14 14 15 17 17 17 18 20 18 18 3 1 3 9 6 3 10 13 10 10 11 19 15 19 18 9 8 8 13 3 2 1 9 22 19 21 19 29 32 40 40 36 41 45 47 45
3 4 5 7 8 10 12 12 14 15 17 17 18 20 22 22 17 5 3 10 14 10 2 6 9 3 11 16 21 21 23 20 17 14 4 5 4 4 3 3 26 31 31 30 25 34 34 29 42 46 44 46 46 45
3 4 5 5 7 10 11 12 14 16 17 19 21 22 20 10 4 3 4 18 17 6 2 1 5 6 14 11 10 18 20 8 2 2 1 1 4 7 3 20 25 28 30 23 32 32 32 39 40 41 42 41 41 32
3 3 4 5 8 9 11 12 14 16 19 21 20 17 6 3 4 16 5 8 5 4 1 0 1 3 16 13 14 10 6 3 5 2 3 5 2 4 9 22 25 28 28 32 35 32 36 37 37 40 39 42 39 33
3 4 4 5 7 9 10 12 15 18 20 20 14 6 2 13 16 5 3 3 2 0 1 3 4 2 9 13 5 8 5 2 2 2 3 3 4 11 20 22 24 30 34 36 35 38 42 42 40 41 40 40 39 37
4 4 3 4 7 8 10 12 16 19 19 15 10 3 14 12 4 3 3 5 5 2 2 4 8 6 10 3 3 4 3 2 2 3 3 2 2 17 27 28 31 32 33 32 33 35 37 37 38 39 39 39 38 36
4 0 2 5 6 9 11 14 16 17 17 17 11 9 6 4 2 5 1 5 3 2 8 6 10 10 10 5 3 5 1 3 2 10 3 2 4 22 28 30 32 31 32 32 32 34 34 36 37 38 38 37 37 35
0 1 3 6 8 10 12 14 16 17 17 10 2 3 4 3 7 5 3 4 4 11 7 11 11 10 4 3 4 3 3 3 10 3 2 2 15 26 30 32 32 29 30 30 32 31 31 33 35 37 38 35 34 36
1 2 5 6 9 11 14 14 15 15 11 3 4 5 3 4 1 3 3 3 7 8 18 19 7 4 4 5 2 2 3 3 3 3 2 5 19 29 29 28 29 30 30 29 30 30 30 31 34 34 35 35 36 37
2 3 5 7 10 13 13 15 17 15 3 2 1 1 1 0 2 1 4 6 11 13 10 5 4 3 3 3 1 2 6 3 3 3 3 14 23 28 28 27 27 27 28 28 27 28 28 29 31 32 33 33 34 35
1 3 4 7 11 13 16 17 14 7 1 2 1 2 1 3 0 2 6 11 11 10 4 2 2 3 3 1 3 2 2 2 2 5 16 17 24 26 25 24 23 24 23 24 25 26 26 27 30 29 30 33 33 33
2 2 6 9 12 16 18 15 4 1 1 1 1 4 5 5 5 4 10 9 10 4 1 2 2 3 4 3 2 3 1 2 11 15 15 14 22 23 22 21 20 22 21 22 24 26 27 25 27 30 33 33 32 31
2 5 7 10 14 17 12 5 2 2 2 2 3 1 4 5 6 8 8 10 4 2 3 1 2 3 1 0 1 2 3 10 9 11 12 17 19 19 19 19 19 20 20 19 24 23 27 28 29 29 28 28 29 32
4 6 8 11 13 13 4 2 2 1 1 3 4 4 4 5 9 9 7 7 3 2 3 1 2 1 0 1 1 5 8 9 13 12 9 15 16 17 18 18 18 19 19 19 22 25 25 27 25 25 27 28 29 28
5 7 9 10 13 6 3 2 3 3 2 3 5 3 4 6 7 8 8 5 4 2 2 1 3 2 2 4 6 7 7 8 11 11 11 14 16 15 17 18 20 19 18 19 21 21 24 27 27 26 26 25 27 28
6 6 8 11 10 4 3 2 2 3 5 3 4 6 3 5 6 5 5 3 2 3 3 4 4 3 3 2 2 4 5 7 7 9 11 13 13 14 15 17 18 19 19 20 22 23 24 25 26 24 25 25 23 24
7 8 11 10 3 2 2 2 3 6 4 5 6 4 3 3 3 2 4 3 3 3 3 3 4 3 1 1 2 3 4 5 6 7 7 8 11 13 15 16 19 19 19 18 19 21 21 22 21 21 22 22 22 23
7 8 6 2 2 2 2 3 2 2 2 4 6 3 2 2 2 5 3 3 3 4 4 4 4 3 2 1 2 3 3 4 5 7 9 10 11 11 12 13 16 17 16 16 17 17 19 19 20 19 19 20 21 22
6 3 2 2 2 2 2 1 2 3 3 3 2 4 3 2 4 2 2 2 3 3 4 5 5 4 3 2 3 3 3 4 5 6 7 8 10 12 12 12 13 14 15 13 14 15 16 18 17 18 19 20 22 22
2 3 2 2 2 1 1 2 2 1 2 1 2 4 1 3 2 1 2 2 4 5 5 5 5 6 7 6 5 3 3 4 4 4 5 7 8 8 9 10 12 13 14 12 13 15 16 16 16 17 17 18 19 20
2 3 4 4 2 2 4 1 2 3 2 2 4 2 2 1 2 4 3 3 4 4 6 5 5 5 5 5 4 3 3 4 5 5 5 8 9 11 12 13 12 13 13 14 14 14 14 15 15 15 15 16 17 17
2 4 5 5 3 2 2 3 3 3 2 4 3 1 2 1 4 3 3 4 4 4 6 6 6 6 5 4 3 2 3 4 5 5 5 6 8 10 11 13 14 14 15 15 13 12 13 13 14 14 15 15 16 17
6 3 4 5 5 5 2 2 3 4 4 3 2 1 5 6 4 2 2 4 5 6 7 7 7 6 6 5 5 5 5 4 5 5 5 6 7 9 11 12 12 13 14 13 11 10 10 10 12 12 12 13 14 15
4 4 4 5 5 5 6 7 4 4 3 5 3 3 4 5 5 5 10 12 12 10 9 9 8 8 7 6 6 5 4 5 4 4 5 5 6 8 9 10 10 12 12 10 9 9 10 10 9 10 11 11 12 14
4 7 4 3 4 5 4 7 5 6 7 9 8 9 12 16 16 17 17 16 13 10 9 9 9 8 7 6 6 5 4 4 5 4 5 5 7 8 9 10 10 11 12 9 7 7 7 7 8 9 10 10 10 11
3 6 4 4 4 4 7 9 11 13 14 12 15 17 19 16 17 17 15 13 11 10 10 9 9 8 7 6 5 5 5 5 5 6 7 7 8 9 10 11 11 12 11 7 5 5 6 6 6 7 8 9 9 10
4 6 4 2 3 5 6 4 4 4 4 4 4 6 5 5 5 4 4 5 7 9 9 9 9 8 7 7 6 6 6 7 7 7 7 7 8 8 9 9 9 8 6 5 4 5 5 6 5 6 7 8 8 9
3 5 6 4 3 2 2 3 3 3 4 3 3 3 4 4 4 3 4 4 4 7 8 8 8 7 7 8 8 8 7 7 7 8 8 8 8 8 8 9 10 7 5 4 4 5 5 5 4 5 6 6 7 8
Wind_Direction
218 249 306 337 345 357 2 1 358 353 353 350 341 342 349 343 350 344 345 345 336 292 299 264 308 302 300 286 208 285 330 12 1 350 289 289 337 269 341 258 276 270 272 276 266 279 283 356 351 51 302 306 302 299
225 247 293 339 3 3 352 348 346 345 344 341 344 343 339 332 345 341 329 337 326 295 284 300 300 318 291 294 273 285 252 287 266 296 295 261 297 270 220 288 252 264 219 274 245 262 287 298 306 315 310 302 318 313
215 254 325 351 349 339 340 335 331 330 332 338 339 336 333 340 343 334 324 328 327 300 311 284 321 336 313 293 293 277 274 277 263 306 306 281 277 244 270 258 279 288 324 297 339 351 316 331 316 321 316 312 308 303
223 256 318 328 330 331 337 335 335 337 339 337 335 336 336 335 330 326 320 325 308 282 274 305 317 328 340 347 311 294 273 285 281 294 279 217 250 245 256 256 303 331 327 319 282 305 319 309 316 313 307 302 300 298
231 276 290 307 319 328 333 335 336 338 335 335 335 333 329 327 323 312 320 322 323 283 290 299 316 67 317 347 337 333 319 297 300 280 195 251 269 265 253 254 72 1 330 319 302 311 302 305 306 301 297 296 296 295
259 275 284 297 311 320 330 330 332 333 334 336 335 331 326 321 320 317 295 195 349 329 317 332 302 324 3 360 3 343 320 305 293 276 271 255 255 273 253 20 28 350 338 325 303 313 306 301 302 304 299 298 294 290
261 283 299 306 316 329 329 330 330 331 336 337 334 326 317 314 314 263 283 308 321 339 359 308 315 324 13 350 337 324 319 301 289 279 239 248 346 303 63 12 334 338 334 330 324 322 318 321 313 316 311 308 303 298
298 303 305 318 331 331 327 328 331 335 338 336 330 324 321 334 18 56 346 302 275 308 259 176 278 318 355 339 323 323 308 303 331 295 29 23 37 38 49 337 333 335 334 334 334 333 323 323 325 326 331 331 326 310
292 296 315 326 329 327 327 333 337 340 338 335 332 325 344 43 10 320 329 352 58 171 190 264 219 313 338 335 315 319 325 1 317 294 123 79 38 51 331 331 333 338 340 333 338 340 340 339 339 341 342 349 344 335
313 321 317 321 326 332 335 337 337 338 337 339 340 343 29 345 335 344 324 330 12 25 231 258 328 328 319 330 307 322 327 297 321 322 123 92 106 18 354 343 342 346 353 353 347 345 347 347 350 350 352 355 2 359
340 314 311 324 329 335 336 335 333 335 342 351 341 332 315 341 357 4 2 16 345 10 353 333 349 322 324 341 273 298 302 307 352 335 100 69 56 357 350 351 357 0 3 5 4 1 2 358 355 356 360 8 16 19
342 357 327 324 329 328 330 330 331 341 346 331 312 312 324 359 15 64 322 337 38 267 358 356 338 331 311 301 303 317 269 357 293 332 59 60 12 353 352 352 359 3 4 8 14 10 12 11 10 11 14 19 24 34
260 13 326 326 329 329 330 331 333 341 339 335 10 338 351 341 38 80 340 316 346 332 331 349 328 315 303 299 292 30 25 274 315 34 67 66 351 355 355 356 359 5 7 9 14 17 19 23 25 24 23 34 39 43
130 320 322 326 331 335 334 333 339 342 344 332 11 351 104 332 231 165 187 219 302 300 325 328 316 322 321 344 314 38 261 7 38 32 31 359 355 354 355 359 1 3 7 8 14 17 20 26 26 30 34 37 42 45
262 301 317 331 339 338 335 333 332 334 312 39 334 257 285 32 275 317 328 320 316 316 331 343 321 296 308 5 259 329 7 40 35 23 349 340 348 352 355 359 4 6 6 9 15 17 20 27 30 32 35 39 42 44
288 321 338 335 339 337 334 328 325 322 188 162 252 304 235 316 162 296 317 323 327 325 320 289 319 26 296 250 13 351 39 33 8 328 332 339 351 353 355 1 5 8 10 12 20 22 24 31 34 34 40 41 42 44
336 345 335 340 338 338 333 329 310 359 107 240 272 253 267 279 282 318 319 322 330 320 322 325 34 234 311 17 28 8 47 7 335 340 352 349 353 352 356 3 7 11 14 19 25 27 29 30 40 40 37 41 41 43
342 333 333 334 336 336 327 358 359 274 242 241 275 275 270 285 298 298 304 317 320 289 321 262 314 31 149 286 327 15 342 333 348 358 8 347 348 358 4 8 12 16 19 25 30 29 34 30 34 37 36 37 42 41
305 323 322 328 335 335 316 333 331 314 320 293 278 289 290 289 286 291 306 320 290 291 296 248 77 201 220 47 330 321 332 342 339 352 356 347 358 5 11 16 20 23 27 29 34 28 35 33 30 34 35 36 40 38
280 302 321 327 331 327 290 299 320 304 297 297 298 307 285 286 297 299 310 307 273 244 229 184 205 199 229 273 302 310 321 332 340 353 2 9 9 11 18 19 21 24 31 34 35 31 32 36 32 33 35 34 38 37
293 323 323 323 319 271 280 333 305 302 295 285 288 310 297 283 287 290 306 295 251 225 230 225 229 246 264 288 314 333 339 347 1 357 348 356 10 14 21 25 26 28 32 32 33 34 32 31 25 28 33 34 37 44
307 317 318 318 265 283 301 267 287 295 282 297 320 307 283 287 280 268 284 253 239 232 217 225 206 201 190 353 350 355 3 9 16 13 10 6 12 20 23 24 26 29 30 30 30 32 30 29 27 28 34 36 37 42
306 319 312 286 296 268 269 292 296 292 301 318 316 301 255 271 272 307 262 253 259 248 230 224 210 198 211 307 345 352 359 3 8 19 23 20 17 17 20 22 24 27 31 31 29 29 31 29 31 31 34 38 38 40
306 296 274 252 243 273 280 260 280 299 291 321 9 307 310 307 309 254 251 267 255 255 222 218 215 212 232 279 314 327 341 350 354 358 5 15 21 22 20 21 24 27 27 25 29 28 29 29 28 30 32 37 36 36
262 239 228 239 237 236 340 336 316 323 263 276 33 307 332 311 17 340 238 263 267 238 229 235 236 241 251 269 280 299 325 343 349 351 360 10 19 23 26 21 19 23 25 25 29 27 27 28 26 29 30 34 34 33
228 219 215 207 197 170 195 191 222 229 213 295 240 293 315 34 39 255 243 255 280 257 233 243 245 250 257 255 254 284 330 348 348 350 356 5 9 10 14 16 21 24 19 18 20 20 23 24 23 23 27 31 31 32
237 244 216 213 199 193 221 237 236 231 231 218 240 154 67 28 258 248 247 284 281 254 239 243 248 249 247 234 241 268 311 338 348 344 345 352 1 360 2 8 12 12 14 12 8 9 15 17 19 21 22 22 23 26
237 228 192 192 198 211 210 217 206 218 236 196 180 212 188 199 240 226 269 320 308 279 254 247 243 236 231 236 253 270 290 309 323 335 337 341 351 356 359 359 357 1 357 353 358 4 8 13 14 16 19 21 22 22
224 207 195 205 209 220 223 213 236 223 214 202 203 245 255 242 261 290 306 303 296 284 259 245 242 240 240 244 253 262 284 300 305 324 337 337 342 347 351 346 347 347 349 348 349 358 2 8 13 17 17 18 20 20
205 195 208 203 208 233 217 214 237 247 249 242 253 267 273 279 288 292 292 288 281 267 249 237 233 232 234 240 252 265 285 300 305 305 318 325 333 337 338 340 345 346 345 346 349 351 357 1 6 12 14 15 16 18
206 196 222 228 255 249 252 262 267 271 271 265 263 261 271 284 289 288 278 273 262 249 237 231 228 228 232 242 259 278 296 298 299 306 311 314 321 325 328 333 335 339 340 343 347 349 356 3 8 13 13 14 18 21
204 208 221 248 254 274 292 270 267 261 266 262 259 252 276 275 266 276 283 290 265 230 220 220 219 224 234 247 266 278 287 293 296 299 302 305 310 311 317 323 329 331 333 338 345 351 358 2 8 12 13 14 19 23
214 220 233 269 267 263 276 284 278 280 254 260 264 267 252 258 266 270 289 293 238 208 212 218 226 239 252 260 268 276 283 288 292 294 299 305 308 315 325 323 331 326 330 335 338 343 347 351 3 9 11 14 19 23
Height
1566 1566 1566 1566 1566 1565 1564 1562 1561 1559 1557 1555 1553 1551 1549 1547 1545 1543 1541 1540 1539 1535 1531 1530 1527 1526 1524 1524 1523 1516 1516 1511 1509 1513 1510 1508 1507 1501 1504 1497 1496 1496 1492 1488 1484 1480 1476 1459 1457 1467 1460 1450 1448 1446
1564 1564 1565 1564 1564 1564 1562 1561 1560 1558 1556 1554 1552 1550 1548 1546 1543 1541 1538 1539 1537 1535 1529 1528 1522 1521 1520 1517 1516 1514 1514 1511 1510 1511 1509 1506 1501 1498 1500 1496 1486 1489 1484 1482 1481 1469 1460 1460 1460 1458 1455 1448 1444 1441
1562 1563 1563 1563 1563 1563 1562 1560 1559 1557 1554 1552 1550 1548 1546 1544 1542 1541 1537 1536 1533 1529 1524 1521 1519 1516 1517 1515 1513 1511 1508 1507 1507 1507 1508 1504 1502 1496 1505 1496 1484 1480 1479 1476 1478 1463 1464 1461 1456 1454 1450 1444 1439 1435
1561 1562 1562 1562 1562 1561 1560 1559 1557 1555 1553 1551 1549 1546 1544 1542 1540 1538 1535 1533 1531 1530 1525 1520 1517 1512 1509 1510 1508 1505 1503 1502 1503 1503 1502 1502 1500 1493 1492 1487 1485 1494 1485 1484 1474 1466 1461 1457 1454 1450 1442 1436 1429 1425
1560 1560 1560 1560 1560 1559 1558 1557 1555 1553 1551 1549 1546 1543 1540 1537 1536 1534 1531 1529 1528 1530 1525 1517 1512 1510 1509 1508 1505 1502 1501 1500 1499 1498 1497 1497 1492 1491 1485 1483 1492 1495 1491 1485 1476 1473 1467 1456 1451 1444 1435 1426 1420 1414
1557 1558 1558 1558 1558 1557 1556 1554 1554 1552 1549 1546 1544 1540 1537 1534 1532 1531 1528 1529 1527 1527 1526 1522 1513 1509 1509 1507 1505 1502 1500 1497 1495 1492 1490 1487 1486 1489 1484 1479 1489 1493 1491 1487 1476 1469 1462 1450 1441 1435 1426 1416 1407 1401
1555 1555 1555 1555 1555 1554 1553 1553 1552 1549 1546 1543 1540 1537 1533 1530 1528 1528 1529 1528 1525 1523 1523 1521 1515 1511 1509 1507 1502 1497 1492 1490 1488 1487 1484 1485 1485 1483 1488 1497 1492 1487 1483 1477 1472 1462 1451 1442 1432 1422 1414 1402 1392 1384
1553 1554 1554 1553 1552 1552 1552 1551 1549 1546 1543 1540 1537 1533 1529 1526 1526 1526 1526 1524 1522 1522 1521 1523 1518 1512 1509 1506 1501 1495 1489 1485 1484 1484 1484 1482 1487 1489 1498 1499 1494 1487 1480 1473 1467 1460 1451 1439 1426 1415 1405 1393 1381 1372
1551 1551 1551 1551 1551 1551 1550 1549 1546 1544 1541 1538 1535 1530 1528 1527 1527 1527 1523 1521 1518 1522 1519 1520 1523 1516 1511 1508 1502 1495 1490 1488 1486 1484 1483 1488 1496 1503 1506 1499 1493 1486 1479 1470 1461 1454 1445 1434 1423 1412 1400 1389 1378 1368
1550 1549 1550 1550 1551 1550 1549 1547 1544 1542 1539 1535 1530 1529 1527 1528 1526 1526 1524 1523 1521 1521 1520 1519 1518 1518 1514 1509 1503 1500 1494 1493 1489 1486 1485 1492 1503 1508 1504 1498 1492 1484 1476 1467 1457 1446 1438 1429 1421 1411 1402 1392 1381 1371
1548 1548 1549 1549 1549 1548 1547 1545 1543 1540 1537 1533 1530 1528 1526 1524 1524 1524 1525 1526 1525 1524 1522 1520 1519 1517 1514 1512 1509 1505 1501 1496 1500 1487 1488 1495 1503 1505 1500 1495 1488 1481 1475 1468 1461 1454 1445 1436 1426 1416 1405 1396 1386 1376
1547 1548 1548 1548 1548 1547 1546 1544 1542 1539 1536 1533 1532 1529 1528 1524 1522 1522 1532 1530 1529 1531 1524 1522 1521 1518 1514 1511 1509 1505 1505 1501 1492 1491 1495 1501 1508 1506 1499 1493 1487 1481 1474 1467 1461 1454 1446 1438 1430 1420 1411 1401 1392 1384
1547 1548 1548 1548 1547 1547 1545 1543 1541 1537 1534 1530 1530 1530 1530 1531 1531 1535 1547 1540 1538 1530 1526 1524 1522 1519 1514 1512 1510 1509 1510 1502 1495 1500 1502 1510 1510 1505 1499 1492 1485 1481 1475 1468 1460 1455 1448 1441 1433 1425 1417 1408 1399 1391
1546 1547 1548 1547 1547 1545 1543 1542 1538 1537 1533 1532 1531 1534 1535 1538 1535 1532 1535 1535 1533 1530 1527 1524 1521 1519 1516 1514 1512 1514 1505 1501 1511 1510 1510 1511 1509 1505 1499 1494 1487 1480 1476 1470 1464 1457 1451 1444 1437 1430 1423 1416 1408 1400
1546 1547 1547 1546 1545 1543 1542 1539 1537 1536 1535 1535 1535 1539 1536 1531 1530 1531 1532 1531 1531 1529 1525 1523 1522 1521 1518 1518 1514 1512 1512 1515 1511 1514 1515 1513 1509 1504 1498 1493 1488 1482 1477 1471 1466 1460 1454 1448 1441 1435 1429 1422 1415 1409
1545 1546 1545 1545 1543 1541 1539 1536 1534 1535 1533 1534 1536 1537 1533 1532 1531 1530 1530 1530 1529 1526 1525 1525 1523 1525 1523 1519 1517 1522 1521 1522 1519 1519 1517 1513 1509 1504 1499 1494 1489 1484 1479 1474 1469 1463 1458 1452 1446 1442 1436 1428 1423 1418
1545 1545 1545 1543 1542 1540 1536 1533 1533 1533 1532 1533 1534 1534 1534 1532 1531 1530 1530 1528 1527 1526 1525 1524 1527 1525 1521 1525 1524 1521 1524 1523 1522 1519 1515 1512 1509 1504 1499 1495 1490 1485 1481 1476 1471 1466 1461 1456 1451 1445 1438 1435 1431 1426
1544 1545 1544 1543 1542 1540 1534 1531 1531 1533 1532 1532 1534 1534 1533 1532 1531 1530 1529 1528 1527 1526 1525 1525 1525 1526 1526 1528 1524 1524 1523 1522 1520 1518 1515 1512 1508 1504 1500 1495 1491 1487 1483 1478 1473 1470 1464 1459 1454 1450 1446 1442 1438 1433
1543 1543 1544 1543 1542 1539 1533 1533 1533 1532 1532 1532 1532 1532 1531 1530 1529 1528 1527 1526 1526 1526 1525 1524 1525 1527 1524 1524 1524 1523 1522 1521 1519 1516 1515 1512 1508 1504 1500 1497 1493 1489 1484 1480 1476 1473 1468 1465 1461 1456 1452 1448 1443 1440
1542 1542 1541 1541 1543 1540 1535 1534 1533 1532 1533 1533 1532 1531 1530 1529 1528 1526 1526 1525 1525 1525 1524 1523 1523 1523 1523 1523 1523 1522 1521 1519 1517 1515 1514 1511 1508 1505 1501 1498 1494 1491 1487 1483 1479 1476 1472 1468 1465 1461 1457 1453 1449 1445
1541 1540 1538 1540 1540 1539 1536 1534 1534 1534 1533 1532 1531 1530 1528 1527 1526 1525 1525 1524 1524 1522 1521 1521 1521 1521 1521 1521 1521 1521 1520 1518 1517 1515 1514 1511 1509 1506 1502 1499 1496 1493 1489 1486 1483 1479 1476 1472 1470 1466 1462 1459 1456 1452
1540 1539 1537 1537 1537 1536 1536 1536 1536 1535 1534 1531 1530 1529 1527 1526 1526 1525 1524 1523 1521 1520 1520 1520 1520 1520 1521 1521 1521 1520 1519 1518 1517 1516 1514 1512 1509 1507 1504 1501 1498 1495 1492 1489 1487 1483 1480 1478 1475 1471 1467 1465 1462 1457
1539 1538 1537 1536 1537 1537 1538 1536 1535 1533 1532 1530 1529 1528 1527 1526 1525 1525 1523 1521 1519 1518 1519 1519 1520 1520 1520 1520 1520 1519 1519 1518 1517 1516 1514 1512 1510 1508 1505 1503 1500 1498 1495 1493 1490 1487 1484 1482 1479 1476 1473 1469 1466 1462
1538 1537 1536 1536 1537 1536 1536 1535 1534 1533 1532 1531 1530 1530 1526 1525 1525 1523 1523 1519 1518 1518 1518 1519 1519 1519 1520 1520 1519 1519 1518 1517 1516 1515 1514 1513 1511 1508 1506 1505 1502 1500 1497 1495 1492 1490 1487 1485 1482 1479 1476 1473 1469 1466
1540 1538 1538 1535 1536 1536 1535 1534 1534 1533 1535 1531 1532 1529 1526 1526 1526 1526 1523 1518 1517 1517 1518 1518 1518 1518 1518 1518 1518 1518 1517 1517 1516 1515 1514 1512 1511 1509 1508 1506 1503 1501 1499 1496 1494 1491 1489 1487 1485 1482 1479 1476 1474 1471
1537 1534 1535 1532 1533 1534 1534 1536 1535 1534 1532 1532 1529 1527 1526 1526 1529 1526 1518 1516 1516 1516 1516 1517 1517 1517 1517 1517 1517 1517 1517 1516 1515 1514 1513 1511 1510 1509 1507 1505 1503 1501 1499 1497 1495 1493 1491 1488 1486 1484 1482 1480 1477 1475
1535 1531 1531 1531 1531 1532 1532 1531 1531 1532 1532 1531 1526 1526 1527 1531 1530 1517 1515 1515 1515 1515 1515 1515 1515 1515 1516 1516 1516 1516 1516 1515 1514 1514 1513 1511 1510 1509 1507 1505 1503 1502 1499 1497 1496 1494 1492 1490 1488 1486 1484 1482 1479 1477
1529 1528 1529 1530 1529 1530 1529 1529 1529 1528 1525 1525 1525 1527 1527 1523 1517 1514 1514 1514 1514 1513 1513 1513 1514 1514 1514 1514 1515 1515 1514 1514 1513 1512 1512 1511 1510 1508 1507 1505 1503 1501 1499 1497 1496 1494 1493 1491 1490 1488 1487 1485 1482 1480
1526 1526 1527 1527 1528 1527 1525 1525 1523 1522 1522 1522 1522 1520 1516 1514 1513 1513 1512 1512 1511 1511 1511 1511 1512 1512 1512 1512 1513 1513 1513 1512 1512 1511 1510 1510 1509 1508 1507 1505 1503 1501 1499 1497 1496 1494 1493 1492 1491 1490 1488 1486 1484 1482
1524 1525 1525 1525 1525 1522 1520 1521 1520 1520 1519 1519 1519 1516 1514 1512 1511 1510 1508 1507 1507 1507 1508 1509 1509 1510 1510 1511 1511 1511 1511 1510 1510 1510 1509 1508 1508 1507 1505 1504 1502 1500 1498 1496 1495 1494 1493 1492 1491 1490 1489 1488 1486 1484
1522 1523 1523 1522 1520 1518 1518 1518 1517 1516 1515 1514 1513 1513 1511 1509 1506 1504 1502 1502 1502 1503 1504 1506 1507 1508 1508 1509 1509 1509 1509 1509 1508 1507 1507 1506 1505 1505 1504 1502 1500 1499 1497 1496 1495 1494 1494 1493 1492 1491 1490 1489 1487 1486
1521 1521 1521 1519 1518 1517 1516 1515 1513 1512 1511 1510 1509 1509 1508 1507 1504 1501 1500 1500 1499 1500 1502 1503 1504 1506 1506 1507 1507 1507 1507 1506 1505 1505 1505 1504 1503 1503 1502 1500 1499 1497 1496 1495 1495 1494 1493 1493 1492 1492 1491 1490 1488 1487
1519 1520 1520 1519 1516 1515 1515 1514 1513 1511 1510 1509 1507 1506 1506 1505 1502 1501 1499 1498 1499 1499 1500 1501 1502 1503 1504 1504 1504 1504 1504 1503 1503 1502 1502 1502 1501 1500 1499 1498 1497 1496 1495 1495 1494 1494 1493 1493 1493 1492 1491 1490 1489 1488